sat.trackr.live / text

‹ back to catalog

STARLINK-36526

NORAD 67508 · 2026-012R

PAYLOAD ACTIVE UNKNOWN

§ Identity

Operator
Country
US
Launch date
2026-01-18
Launch site
AFETR
Launch vehicle
Mass (kg)
RCS (m²)

Purposes: comms

External: N2YO · Heavens-Above · Gunter

§ Orbital elements

Epoch: 2026-09-19T19:12:10.545984Z

Period
94.27 min
Inclination
43.0018°
Eccentricity
0.0001551
Mean motion
15.27586107 rev/d
Perigee alt
482.0 km
Apogee alt
484.1 km
Semi-major
6,861.2 km
B*
5.6024e-4
RAAN
297.7170°
Arg perigee
274.8843°
Mean anomaly
85.1831°
Rev number
3,745

§ Raw data

STARLINK-365261 67508U 26012R   26262.80012206  .00015189  00000+0  56024-3 0  99972 67508  43.0018 297.7170 0001551 274.8843  85.1831 15.27586107 37452

JSON: /api/v1/satellites/67508 · /tle

For live sub-satellite position, see the globe view (requires WebGL).

§ Visibility from observer

Set your observer location to see the next 7 days of passes ≥ 10°. The values pass through the URL so the page stays shareable.

No JS? Fill the form by hand. The geolocation button needs JavaScript.